| time (UTC) | temp C | wind direction | speed KPH | gust KPH | rain 1hr cm | rain 24hr cm | rain mn cm | humidity % | barometer mb |
| 20260906060016 | 22 | 0.0 | 0.0 | 0.00 | 0.38 | 0.00 | 92 | 1011.6 | |
| 20260906055016 | 22 | 0.0 | 1.6 | 0.00 | 0.38 | 0.00 | 92 | 1011.6 | |
| 20260906054016 | 22 | 0.0 | 0.0 | 0.00 | 0.38 | 0.00 | 91 | 1011.7 | |
| 20260906053016 | 22 | 0.0 | 0.0 | 0.00 | 0.38 | 0.00 | 91 | 1011.8 | |
| 20260906052016 | 22 | 0.0 | 0.0 | 0.00 | 0.38 | 0.00 | 91 | 1011.9 | |
| 20260906051016 | 22 | 0.0 | 0.0 | 0.00 | 0.38 | 0.00 | 91 | 1012.0 | |
| 20260906050016 | 22 | 0.0 | 0.0 | 0.00 | 0.38 | 0.00 | 90 | 1012.1 | |
| 20260906045016 | 22 | 0.0 | 0.0 | 0.00 | 0.38 | 0.00 | 90 | 1012.0 | |
| 20260906044016 | 22 | 0.0 | 1.6 | 0.00 | 0.38 | 0.00 | 91 | 1012.2 | |
| 20260906043016 | 22 | 0.0 | 0.0 | 0.00 | 0.38 | 0.00 | 90 | 1012.3 | |
| 20260906042016 | 22 | 0.0 | 0.0 | 0.00 | 0.38 | 0.00 | 90 | 1012.3 | |
| 20260906041016 | 22 | 0.0 | 0.0 | 0.00 | 0.38 | 0.00 | 89 | 1012.3 | |
| 20260906040016 | 22 | 0.0 | 0.0 | 0.00 | 0.38 | 0.38 | 89 | 1012.3 | |
| 20260906035017 | 22 | 0.0 | 1.6 | 0.00 | 0.38 | 0.38 | 89 | 1012.1 | |
| 20260906034017 | 22 | 0.0 | 0.0 | 0.00 | 0.38 | 0.38 | 89 | 1012.4 | |
| 20260906033017 | 22 | 0.0 | 0.0 | 0.00 | 0.38 | 0.38 | 89 | 1012.3 | |
| 20260906032017 | 22 | 0.0 | 0.0 | 0.00 | 0.38 | 0.38 | 88 | 1012.3 | |
| 20260906031017 | 23 | 0.0 | 0.0 | 0.00 | 0.38 | 0.38 | 88 | 1012.3 | |
| 20260906030017 | 23 | 0.0 | 0.0 | 0.00 | 0.38 | 0.38 | 88 | 1012.4 | |
| 20260906025017 | 23 | 0.0 | 0.0 | 0.00 | 0.38 | 0.38 | 87 | 1012.3 | |
| 20260906024017 | 23 | 0.0 | 0.0 | 0.00 | 0.38 | 0.38 | 87 | 1012.2 | |
| 20260906023017 | 23 | 0.0 | 0.0 | 0.00 | 0.38 | 0.38 | 86 | 1012.1 | |
| 20260906022017 | 23 | 0.0 | 0.0 | 0.00 | 0.38 | 0.38 | 86 | 1012.0 | |
| 20260906021017 | 23 | 0.0 | 0.0 | 0.00 | 0.38 | 0.38 | 85 | 1011.7 | |
| 20260906020017 | 23 | 0.0 | 0.0 | 0.00 | 0.38 | 0.38 | 85 | 1011.9 | |
| 20260906015017 | 23 | 0.0 | 0.0 | 0.00 | 0.38 | 0.38 | 84 | 1011.8 | |
| 20260906014017 | 23 | 0.0 | 0.0 | 0.00 | 0.38 | 0.38 | 85 | 1011.6 | |
| 20260906013017 | 24 | 0.0 | 0.0 | 0.00 | 0.38 | 0.38 | 85 | 1011.6 | |
| 20260906012017 | 24 | 0.0 | 0.0 | 0.00 | 0.38 | 0.38 | 84 | 1011.5 | |
| 20260906011017 | 24 | 0.0 | 0.0 | 0.00 | 0.38 | 0.38 | 84 | 1011.4 | |
| 20260906010017 | 25 | 0.0 | 0.0 | 0.00 | 0.38 | 0.38 | 83 | 1011.3 | |
| 20260906005017 | 25 | 0.0 | 0.0 | 0.00 | 0.38 | 0.38 | 82 | 1011.2 | |
| 20260906004017 | 25 | 0.0 | 0.0 | 0.00 | 0.38 | 0.38 | 81 | 1011.2 | |
| 20260906003017 | 25 | 0.0 | 0.0 | 0.00 | 0.38 | 0.38 | 80 | 1011.2 | |
| 20260906002017 | 25 | 0.0 | 0.0 | 0.00 | 0.38 | 0.38 | 80 | 1011.1 | |
| 20260906001016 | 25 | 0.0 | 0.0 | 0.00 | 0.38 | 0.38 | 79 | 1010.9 | |
| 20260906000016 | 26 | 0.0 | 0.0 | 0.00 | 0.38 | 0.38 | 79 | 1010.8 | |
| 20260905235016 | 26 | 0.0 | 0.0 | 0.00 | 0.38 | 0.38 | 78 | 1010.7 | |
| 20260905234016 | 26 | 0.0 | 1.6 | 0.00 | 0.38 | 0.38 | 79 | 1010.5 | |
| 20260905233016 | 26 | 0.0 | 0.0 | 0.00 | 0.38 | 0.38 | 74 | 1010.4 | |
| 20260905232016 | 26 | 0.0 | 0.0 | 0.00 | 0.38 | 0.38 | 74 | 1010.3 | |
| 20260905231017 | 26 | 0.0 | 1.6 | 0.00 | 0.38 | 0.38 | 74 | 1010.3 | |
| 20260905230016 | 26 | 338 | 1.6 | 4.8 | 0.00 | 0.38 | 0.38 | 75 | 1010.3 |
| 20260905225016 | 26 | 0.0 | 3.2 | 0.00 | 0.38 | 0.38 | 74 | 1010.3 | |
| 20260905224016 | 26 | 0.0 | 3.2 | 0.00 | 0.38 | 0.38 | 75 | 1010.3 | |
| 20260905223016 | 26 | 0.0 | 1.6 | 0.00 | 0.38 | 0.38 | 76 | 1010.2 | |
| 20260905222016 | 26 | 0.0 | 3.2 | 0.00 | 0.38 | 0.38 | 75 | 1010.0 | |
| 20260905221016 | 26 | 45 | 1.6 | 3.2 | 0.00 | 0.38 | 0.38 | 74 | 1010.2 |
| 20260905220016 | 25 | 0.0 | 3.2 | 0.00 | 0.38 | 0.38 | 76 | 1010.3 | |
| 20260905215016 | 25 | 23 | 1.6 | 8.0 | 0.00 | 0.38 | 0.38 | 75 | 1010.4 |
| 20260905214016 | 25 | 23 | 1.6 | 4.8 | 0.00 | 0.38 | 0.38 | 81 | 1010.5 |
| 20260905213016 | 24 | 23 | 1.6 | 4.8 | 0.00 | 0.38 | 0.38 | 81 | 1010.6 |
| 20260905212017 | 23 | 0.0 | 1.6 | 0.00 | 0.38 | 0.38 | 84 | 1010.8 | |
| 20260905211016 | 23 | 0.0 | 1.6 | 0.00 | 0.38 | 0.38 | 87 | 1010.9 | |
| 20260905210016 | 23 | 0.0 | 1.6 | 0.00 | 0.38 | 0.38 | 88 | 1011.0 | |
| 20260905205016 | 23 | 0.0 | 1.6 | 0.00 | 0.38 | 0.38 | 89 | 1011.1 | |
| 20260905204016 | 23 | 135 | 1.6 | 4.8 | 0.00 | 0.38 | 0.38 | 89 | 1011.1 |
| 20260905203016 | 23 | 135 | 1.6 | 4.8 | 0.00 | 0.38 | 0.38 | 89 | 1011.1 |
| 20260905202016 | 23 | 0.0 | 1.6 | 0.00 | 0.38 | 0.38 | 89 | 1011.2 | |
| 20260905201016 | 23 | 90 | 1.6 | 4.8 | 0.10 | 0.38 | 0.38 | 88 | 1010.8 |
| 20260905200016 | 24 | 23 | 1.6 | 4.8 | 0.38 | 0.38 | 0.38 | 88 | 1011.4 |
| 20260905195016 | 24 | 45 | 1.6 | 8.0 | 0.38 | 0.38 | 0.38 | 88 | 1011.6 |
| 20260905194016 | 24 | 45 | 1.6 | 3.2 | 0.38 | 0.38 | 0.38 | 86 | 1011.4 |
| 20260905193016 | 25 | 90 | 1.6 | 3.2 | 0.38 | 0.38 | 0.38 | 81 | 1010.5 |
| 20260905192016 | 26 | 23 | 3.2 | 6.4 | 0.38 | 0.38 | 0.38 | 74 | 1010.4 |
| 20260905191016 | 32 | 158 | 11.3 | 40.2 | 0.28 | 0.28 | 0.28 | 47 | 1010.3 |
| 20260905190016 | 36 | 23 | 1.6 | 6.4 | 0.00 | 0.00 | 0.00 | 48 | 1010.7 |
| 20260905185016 | 37 | 23 | 1.6 | 4.8 | 0.00 | 0.00 | 0.00 | 46 | 1010.8 |
| 20260905184016 | 37 | 45 | 1.6 | 6.4 | 0.00 | 0.00 | 0.00 | 49 | 1011.0 |
| 20260905183016 | 36 | 158 | 1.6 | 4.8 | 0.00 | 0.00 | 0.00 | 48 | 1010.9 |
| 20260905182016 | 36 | 23 | 1.6 | 8.0 | 0.00 | 0.00 | 0.00 | 49 | 1011.1 |
| 20260905181016 | 36 | 158 | 3.2 | 8.0 | 0.00 | 0.00 | 0.00 | 50 | 1011.4 |
| 20260905180016 | 36 | 90 | 1.6 | 8.0 | 0.00 | 0.00 | 0.00 | 51 | 1011.6 |
| 20260905175016 | 35 | 158 | 6.4 | 11.3 | 0.00 | 0.00 | 0.00 | 52 | 1011.9 |
| 20260905174016 | 36 | 158 | 3.2 | 8.0 | 0.00 | 0.00 | 0.00 | 52 | 1012.1 |
| 20260905173016 | 35 | 23 | 1.6 | 6.4 | 0.00 | 0.00 | 0.00 | 53 | 1012.3 |
| 20260905172016 | 36 | 135 | 4.8 | 9.7 | 0.00 | 0.00 | 0.00 | 50 | 1012.5 |
| 20260905171016 | 36 | 23 | 3.2 | 8.0 | 0.00 | 0.00 | 0.00 | 50 | 1012.7 |
| 20260905170016 | 36 | 158 | 1.6 | 8.0 | 0.00 | 0.00 | 0.00 | 53 | 1012.7 |
| 20260905165016 | 35 | 0 | 1.6 | 3.2 | 0.00 | 0.00 | 0.00 | 55 | 1013.0 |
| 20260905164016 | 35 | 158 | 3.2 | 8.0 | 0.00 | 0.00 | 0.00 | 54 | 1013.1 |
| 20260905163016 | 36 | 23 | 1.6 | 4.8 | 0.00 | 0.00 | 0.00 | 53 | 1013.2 |
| 20260905162016 | 35 | 135 | 1.6 | 3.2 | 0.00 | 0.00 | 0.00 | 55 | 1013.3 |
| 20260905161015 | 35 | 45 | 3.2 | 6.4 | 0.00 | 0.00 | 0.00 | 56 | 1013.4 |
| 20260905160016 | 35 | 113 | 1.6 | 3.2 | 0.00 | 0.00 | 0.00 | 58 | 1013.5 |
| 20260905155016 | 34 | 45 | 1.6 | 4.8 | 0.00 | 0.00 | 0.00 | 61 | 1013.5 |
| 20260905154016 | 34 | 158 | 3.2 | 9.7 | 0.00 | 0.00 | 0.00 | 64 | 1013.5 |
| 20260905153015 | 33 | 68 | 1.6 | 3.2 | 0.00 | 0.00 | 0.00 | 65 | 1013.5 |
| 20260905152015 | 33 | 158 | 3.2 | 8.0 | 0.00 | 0.00 | 0.00 | 66 | 1013.6 |
| 20260905151016 | 33 | 113 | 1.6 | 3.2 | 0.00 | 0.00 | 0.00 | 65 | 1013.7 |
| 20260905150016 | 33 | 90 | 1.6 | 4.8 | 0.00 | 0.00 | 0.00 | 65 | 1013.6 |
| 20260905145018 | 33 | 113 | 1.6 | 4.8 | 0.00 | 0.00 | 0.00 | 67 | 1013.6 |
| 20260905144018 | 32 | 90 | 1.6 | 4.8 | 0.00 | 0.00 | 0.00 | 67 | 1013.6 |
| 20260905143017 | 31 | 45 | 1.6 | 4.8 | 0.00 | 0.00 | 0.00 | 69 | 1013.6 |
| 20260905142017 | 31 | 158 | 1.6 | 4.8 | 0.00 | 0.00 | 0.00 | 72 | 1013.6 |
| 20260905141018 | 31 | 135 | 1.6 | 6.4 | 0.00 | 0.00 | 0.00 | 69 | 1013.6 |
| 20260905140017 | 31 | 0.0 | 3.2 | 0.00 | 0.00 | 0.00 | 72 | 1013.7 | |
| 20260905135017 | 30 | 45 | 1.6 | 3.2 | 0.00 | 0.00 | 0.00 | 73 | 1013.7 |
| 20260905134017 | 29 | 0.0 | 3.2 | 0.00 | 0.00 | 0.00 | 76 | 1013.7 | |
| 20260905133017 | 28 | 113 | 1.6 | 3.2 | 0.00 | 0.00 | 0.00 | 76 | 1013.8 |
| 20260905132017 | 28 | 158 | 1.6 | 6.4 | 0.00 | 0.00 | 0.00 | 76 | 1013.8 |
| 20260905131017 | 27 | 158 | 1.6 | 6.4 | 0.00 | 0.00 | 0.00 | 78 | 1013.8 |
| 20260905130017 | 28 | 158 | 1.6 | 6.4 | 0.00 | 0.00 | 0.00 | 78 | 1013.8 |
| 20260905125017 | 27 | 158 | 1.6 | 6.4 | 0.00 | 0.00 | 0.00 | 79 | 1013.9 |
| 20260905124017 | 27 | 0.0 | 1.6 | 0.00 | 0.00 | 0.00 | 80 | 1013.9 | |
| 20260905123017 | 26 | 0.0 | 1.6 | 0.00 | 0.00 | 0.00 | 82 | 1013.8 | |
| 20260905122017 | 26 | 0.0 | 3.2 | 0.00 | 0.00 | 0.00 | 83 | 1013.9 | |
| 20260905121017 | 25 | 0.0 | 1.6 | 0.00 | 0.00 | 0.00 | 86 | 1013.8 | |
| 20260905120017 | 24 | 0.0 | 0.0 | 0.00 | 0.00 | 0.00 | 88 | 1013.7 | |
| 20260905115017 | 23 | 0.0 | 0.0 | 0.00 | 0.00 | 0.00 | 88 | 1013.7 | |
| 20260905114017 | 23 | 0.0 | 0.0 | 0.00 | 0.00 | 0.00 | 89 | 1013.5 | |
| 20260905113017 | 23 | 0.0 | 0.0 | 0.00 | 0.00 | 0.00 | 89 | 1013.5 | |
| 20260905112017 | 23 | 0.0 | 0.0 | 0.00 | 0.00 | 0.00 | 88 | 1013.4 | |
| 20260905111017 | 23 | 0.0 | 0.0 | 0.00 | 0.00 | 0.00 | 88 | 1013.1 | |
| 20260905110017 | 23 | 0.0 | 0.0 | 0.00 | 0.00 | 0.00 | 88 | 1012.8 | |
| 20260905105017 | 23 | 0.0 | 0.0 | 0.00 | 0.00 | 0.00 | 88 | 1012.6 | |
| 20260905104017 | 23 | 0.0 | 0.0 | 0.00 | 0.00 | 0.00 | 87 | 1012.5 | |
| 20260905103017 | 23 | 0.0 | 0.0 | 0.00 | 0.00 | 0.00 | 87 | 1012.5 | |
| 20260905102017 | 24 | 0.0 | 0.0 | 0.00 | 0.00 | 0.00 | 87 | 1012.4 | |
| 20260905101017 | 24 | 0.0 | 1.6 | 0.00 | 0.00 | 0.00 | 86 | 1012.4 | |
| 20260905100017 | 24 | 0.0 | 1.6 | 0.00 | 0.00 | 0.00 | 86 | 1012.2 | |
| 20260905095017 | 24 | 0.0 | 1.6 | 0.00 | 0.00 | 0.00 | 86 | 1012.2 | |
| 20260905094017 | 24 | 0.0 | 1.6 | 0.00 | 0.00 | 0.00 | 86 | 1012.2 | |
| 20260905093017 | 24 | 0.0 | 1.6 | 0.00 | 0.00 | 0.00 | 85 | 1012.2 | |
| 20260905092017 | 24 | 0.0 | 0.0 | 0.00 | 0.00 | 0.00 | 85 | 1012.3 | |
| 20260905091017 | 24 | 0.0 | 0.0 | 0.00 | 0.00 | 0.00 | 85 | 1012.3 | |
| 20260905090017 | 25 | 0.0 | 0.0 | 0.00 | 0.00 | 0.00 | 85 | 1012.4 | |
| 20260905085017 | 25 | 0.0 | 0.0 | 0.00 | 0.00 | 0.00 | 85 | 1012.5 | |
| 20260905084017 | 25 | 0.0 | 0.0 | 0.00 | 0.00 | 0.00 | 85 | 1012.7 | |
| 20260905083017 | 25 | 0.0 | 0.0 | 0.00 | 0.00 | 0.00 | 85 | 1012.7 | |
| 20260905082017 | 25 | 0.0 | 0.0 | 0.00 | 0.00 | 0.00 | 85 | 1012.7 | |
| 20260905081017 | 25 | 0.0 | 0.0 | 0.00 | 0.00 | 0.00 | 85 | 1012.8 | |
| 20260905080017 | 25 | 0.0 | 0.0 | 0.00 | 0.00 | 0.00 | 85 | 1012.9 | |
| 20260905075017 | 25 | 0.0 | 0.0 | 0.00 | 0.00 | 0.00 | 85 | 1012.9 | |
| 20260905074017 | 25 | 0.0 | 0.0 | 0.00 | 0.00 | 0.00 | 85 | 1013.2 | |
| 20260905073017 | 25 | 0.0 | 0.0 | 0.00 | 0.00 | 0.00 | 85 | 1013.1 | |
| 20260905072017 | 25 | 0.0 | 0.0 | 0.00 | 0.00 | 0.00 | 84 | 1013.2 | |
| 20260905071016 | 25 | 0.0 | 0.0 | 0.00 | 0.00 | 0.00 | 85 | 1013.3 | |
| 20260905070017 | 25 | 0.0 | 0.0 | 0.00 | 0.00 | 0.00 | 84 | 1013.4 | |
| 20260905065017 | 25 | 0.0 | 1.6 | 0.00 | 0.00 | 0.00 | 85 | 1013.6 | |
| 20260905064017 | 25 | 0.0 | 0.0 | 0.00 | 0.00 | 0.00 | 83 | 1013.7 | |
| 20260905063016 | 26 | 0.0 | 1.6 | 0.00 | 0.00 | 0.00 | 83 | 1013.7 | |
| 20260905062017 | 26 | 0.0 | 1.6 | 0.00 | 0.00 | 0.00 | 82 | 1013.6 | |
| 20260905061017 | 26 | 0.0 | 3.2 | 0.00 | 0.00 | 0.00 | 82 | 1014.0 |